Theta_e
307 300 297 298 300 299 298 296 296 299 304 301 300 299 301 305 304 304 304 305 307 308 313 311 310 310 323 339 336 334 332 335 333 334 334 334 333 332 335 326 321 317 314 311
300 297 300 301 301 299 298 296 296 299 303 301 300 299 302 303 303 304 304 304 307 309 309 312 310 308 311 332 332 329 331 329 326 333 334 333 334 333 331 325 319 314 311 310
296 300 301 299 299 296 296 295 296 297 301 302 299 295 299 303 304 305 306 306 307 308 310 312 314 309 313 325 329 324 326 327 325 333 333 327 327 326 325 321 314 311 310 311
299 301 298 298 297 297 293 299 300 300 297 291 299 286 296 298 299 301 303 306 306 306 309 312 315 313 312 322 331 326 328 326 329 335 329 328 326 322 321 315 314 313 311 310
297 297 297 296 296 299 295 300 299 300 296 295 294 288 294 298 295 298 302 305 305 307 309 310 314 319 315 318 331 332 329 326 329 328 330 326 323 318 316 316 313 311 311 311
298 302 301 298 299 301 302 300 301 300 296 288 292 290 290 293 295 300 304 303 304 306 309 311 316 320 316 329 332 326 328 325 325 328 323 321 317 315 313 312 312 310 311 312
298 297 300 301 297 302 301 295 289 286 286 284 294 291 290 298 300 303 301 302 304 306 308 311 316 317 325 325 328 327 326 323 322 321 322 319 318 316 313 312 312 311 309 309
291 289 296 298 299 295 296 295 287 280 281 285 296 286 292 302 304 306 304 303 304 306 307 309 314 321 324 323 324 323 321 321 322 320 319 318 316 313 313 312 311 312 312 312
291 292 298 298 300 298 295 290 298 290 292 287 291 293 299 300 301 304 303 302 302 304 305 307 309 314 321 322 322 320 319 319 319 318 317 316 315 314 312 313 314 314 314 314
295 288 296 296 299 300 297 299 290 292 280 281 287 286 286 294 297 302 300 299 302 303 304 306 307 310 316 316 319 320 318 317 319 317 316 315 318 317 317 316 315 314 314 313
296 292 292 296 294 292 294 293 293 293 291 283 282 284 294 295 299 299 300 299 301 303 303 305 306 307 307 311 311 312 311 310 311 310 307 307 307 308 309 309 310 310 310 308
296 292 289 291 296 298 295 292 291 285 285 288 287 286 297 299 300 301 300 301 301 303 305 304 304 304 305 305 306 307 305 303 302 303 304 303 302 302 302 303 305 308 307 308
297 292 286 288 292 294 292 294 292 290 289 287 281 285 298 300 300 302 300 300 301 302 302 303 302 301 300 303 303 302 301 301 301 301 300 300 300 299 299 299 301 303 306 305
300 293 290 286 290 292 289 292 291 288 283 286 285 286 294 297 299 301 300 299 300 302 301 300 299 299 299 301 301 301 300 300 300 300 298 297 297 298 298 298 299 297 297 297
295 291 294 293 293 292 291 291 291 288 288 284 289 289 290 296 299 301 302 302 301 300 301 301 298 298 299 298 297 297 297 298 297 297 296 295 296 296 297 296 296 296 295 295
295 289 291 289 294 293 290 292 292 291 290 290 292 291 296 299 301 301 301 302 301 300 300 300 299 298 296 295 295 296 296 296 296 296 295 296 296 296 295 295 295 295 294 293
292 290 290 287 292 291 288 292 293 293 294 293 289 293 297 297 299 300 301 302 302 301 300 300 299 298 297 296 296 295 295 296 295 295 295 295 295 295 294 294 294 293 292 292
292 290 290 285 289 283 292 296 296 295 296 296 295 296 298 298 299 300 304 302 301 301 301 299 298 297 297 297 296 296 296 295 295 294 294 294 294 293 293 293 292 292 292 291
293 291 287 283 285 291 293 295 294 292 292 297 295 296 298 300 299 297 303 305 302 301 301 299 298 297 296 296 296 296 295 295 294 293 293 293 293 293 293 292 291 291 291 290
293 292 288 287 282 282 292 296 298 296 286 297 298 296 297 298 290 294 301 303 303 302 301 299 298 298 296 296 296 295 294 294 293 293 292 293 293 293 292 291 291 290 289 289
286 286 284 284 284 291 297 296 297 285 290 296 297 298 298 295 296 300 303 302 303 302 300 300 298 296 296 296 296 294 294 292 294 294 294 293 293 292 291 290 289 287 287 287
287 286 284 286 284 283 297 294 290 296 296 298 298 299 299 299 300 301 301 301 301 300 300 299 297 296 296 296 296 294 293 294 294 293 293 291 290 291 292 288 287 286 286 285
288 294 290 291 291 298 298 298 299 302 298 298 299 299 300 300 299 300 300 301 301 300 299 299 297 296 295 296 295 294 293 294 293 292 290 290 290 288 287 285 285 285 286 285
294 298 293 293 296 298 299 299 300 300 301 302 301 302 301 299 300 299 300 300 300 300 299 299 297 296 294 295 296 295 294 294 293 290 289 289 287 286 285 287 287 285 285 284
295 296 293 293 296 298 300 300 300 301 301 301 303 303 302 301 300 300 299 300 301 301 300 299 297 296 295 295 296 296 295 293 291 289 289 288 286 285 284 285 285 285 284 285
296 294 292 291 298 297 298 301 302 301 301 302 301 301 302 303 302 301 300 300 300 300 299 298 297 296 296 295 295 295 295 293 291 289 288 287 285 284 285 284 283 289 289 289
Wind_Speed
5 4 3 8 6 9 11 13 12 10 5 4 5 4 4 13 15 14 14 16 18 16 17 8 6 6 7 7 7 9 6 4 5 8 9 8 7 4 5 4 7 8 5 5
4 6 7 5 8 10 10 13 9 8 7 5 6 9 14 11 11 9 11 13 16 18 18 15 5 5 7 8 7 9 11 7 9 7 5 4 7 5 4 5 6 8 8 6
4 4 3 7 9 11 11 9 11 12 11 11 6 7 5 7 10 10 10 10 13 15 18 17 17 4 4 7 9 9 8 9 15 16 6 5 6 5 3 5 5 5 8 7
6 3 3 7 7 10 9 11 11 11 6 4 5 2 4 5 8 14 12 9 11 14 15 16 19 10 3 3 13 10 11 12 6 10 8 11 6 7 3 4 4 5 6 7
2 4 5 7 7 8 7 11 13 6 7 5 7 3 6 12 13 15 12 11 11 10 12 15 18 17 6 4 9 12 12 5 9 17 12 8 9 8 5 5 6 8 7 8
7 3 2 4 11 10 9 14 4 4 3 2 6 3 4 6 4 10 12 11 12 11 12 13 15 19 7 11 11 10 15 8 16 11 15 10 10 10 7 5 4 4 5 5
8 6 4 2 8 3 9 10 4 4 3 1 6 3 1 5 1 4 12 12 11 12 11 12 13 4 13 9 8 12 13 12 11 16 15 13 3 8 12 9 7 8 6 3
3 3 1 5 2 4 8 5 3 2 3 5 6 2 2 1 6 8 9 10 12 14 14 14 14 11 10 12 11 14 12 11 10 11 10 10 5 5 4 7 6 5 5 8
4 1 5 2 2 5 5 5 2 1 5 3 4 4 4 9 8 10 11 13 13 14 14 14 15 14 10 11 10 12 13 11 12 12 10 11 8 9 6 7 6 6 6 6
2 4 2 4 3 4 2 1 1 2 3 5 2 6 4 8 9 11 13 12 12 13 13 13 12 14 13 13 12 14 14 13 12 13 10 10 10 8 7 5 7 8 5 7
3 3 4 2 4 4 2 1 2 2 1 2 4 3 6 7 7 9 10 12 12 11 11 10 11 13 13 14 14 14 13 13 13 13 11 12 9 9 8 7 8 8 8 8
5 4 5 4 6 4 3 3 2 1 4 4 4 3 7 8 6 10 10 9 5 8 8 9 10 11 12 12 12 12 11 12 10 10 12 11 9 8 7 8 10 9 9 8
2 4 4 3 1 2 5 6 1 3 3 6 1 2 6 9 7 8 8 8 6 7 7 9 11 10 9 11 11 12 10 10 10 11 11 11 10 9 9 9 9 8 8 7
1 3 6 5 4 1 4 4 4 4 2 5 2 3 7 7 8 7 7 8 5 6 7 9 9 8 7 10 11 10 11 10 10 11 10 10 8 8 10 8 9 9 7 9
2 4 7 9 8 7 7 7 7 8 8 3 4 5 3 8 9 8 7 9 8 6 8 9 8 8 8 9 9 8 7 8 7 9 9 8 7 8 10 9 9 8 8 8
5 3 4 10 13 7 7 6 6 7 9 7 7 8 8 8 9 8 8 7 8 7 7 8 8 9 7 7 6 6 7 7 7 8 8 8 7 8 7 6 7 8 7 7
7 3 2 5 3 6 8 12 13 9 6 8 7 4 8 7 8 8 9 8 8 8 7 7 8 8 7 7 7 7 7 7 7 7 7 7 7 7 6 7 7 7 7 7
5 3 1 5 8 4 4 4 3 4 7 9 4 6 8 8 7 7 9 9 9 9 8 7 7 7 7 6 7 7 7 7 7 7 7 7 7 7 7 7 7 6 5 6
4 4 2 2 4 8 9 5 4 5 5 11 7 9 6 7 6 5 9 9 10 9 8 8 7 6 7 7 7 7 7 7 7 7 7 7 7 7 7 7 7 6 6 5
5 4 2 3 3 4 4 5 3 3 4 4 9 10 9 8 5 6 10 9 12 10 9 9 9 9 8 7 7 7 7 7 7 7 7 7 7 7 7 6 5 3 4 3
5 4 7 5 4 7 7 9 4 2 5 3 4 9 9 8 5 3 12 8 11 10 10 10 9 8 8 8 8 7 7 7 7 7 7 7 7 7 6 5 3 3 4 3
9 9 6 4 5 10 13 6 6 5 3 5 5 7 9 8 6 7 9 9 11 11 10 10 8 8 8 8 7 8 8 8 7 7 7 7 6 4 4 5 3 4 4 4
6 8 7 10 8 3 14 3 7 7 6 6 6 5 8 9 8 7 8 9 9 11 11 9 8 8 8 8 7 8 8 8 7 7 6 6 6 5 4 4 4 3 4 3
5 4 3 5 6 9 10 5 7 5 6 7 6 7 7 7 9 9 7 8 8 10 12 10 9 9 8 8 7 10 9 8 8 8 7 6 6 5 4 3 3 3 4 4
6 10 8 3 3 5 8 9 8 7 5 4 6 7 9 8 7 9 9 8 8 10 11 12 10 10 9 8 8 12 10 8 7 7 6 6 5 3 5 4 4 4 3 4
7 9 9 9 8 8 8 14 10 10 10 10 9 8 8 8 9 8 10 11 9 11 10 12 9 10 10 8 10 10 9 8 7 7 6 5 5 3 3 4 3 4 6 6
Wind_Direction
227 289 17 6 352 306 289 299 293 359 84 341 309 72 29 46 31 12 354 2 336 322 322 328 95 347 331 112 131 163 139 331 297 127 140 140 150 162 161 147 136 131 138 140
261 236 44 344 289 288 327 310 342 320 321 232 313 280 91 29 50 19 346 349 331 331 324 314 294 196 270 150 152 139 173 130 289 315 137 129 149 167 151 134 131 128 130 113
305 38 8 327 311 355 328 14 338 307 304 272 305 92 56 40 46 11 3 338 325 320 328 324 320 209 297 177 141 157 189 162 198 244 121 95 108 73 83 97 89 105 118 110
265 66 337 324 313 1 306 14 324 313 309 334 32 285 173 42 18 7 342 346 328 326 323 317 311 300 314 220 145 160 173 195 192 231 155 156 125 121 57 68 67 59 93 96
105 19 356 309 8 329 281 310 287 277 299 312 22 335 85 28 358 340 329 352 334 320 309 303 305 303 188 289 146 145 155 130 99 325 148 134 120 98 87 75 69 60 53 72
272 90 246 340 311 277 303 304 248 235 224 254 26 83 19 14 340 326 339 350 339 333 319 309 296 284 115 90 93 85 133 110 128 123 13 85 114 115 117 123 103 78 61 50
199 165 121 287 308 93 356 351 4 1 12 43 17 79 86 349 348 9 354 357 349 340 339 331 290 63 72 74 79 102 113 130 127 134 144 123 226 147 140 154 145 146 145 138
316 192 328 30 32 312 298 359 104 268 340 296 303 349 23 24 158 89 33 17 5 5 360 360 19 54 75 81 80 88 101 111 119 109 118 100 99 67 42 83 111 132 140 155
346 67 140 85 307 332 338 56 90 344 208 275 203 109 219 66 45 55 37 20 16 14 5 12 24 30 58 72 78 87 98 98 95 92 98 105 127 105 104 112 122 127 121 134
87 289 107 119 214 241 323 251 205 177 6 305 27 82 6 32 27 36 23 25 20 13 13 25 30 34 47 56 69 81 76 81 85 81 69 65 71 82 101 96 111 103 105 125
324 236 161 166 202 21 186 182 272 165 162 305 318 72 32 57 46 59 39 32 27 16 20 28 40 44 43 59 60 68 68 70 72 77 73 71 68 69 74 81 86 87 91 93
68 327 286 80 88 23 339 345 303 46 340 282 225 102 87 89 61 98 78 61 43 37 25 48 51 56 58 56 57 62 66 68 73 89 93 87 82 81 91 95 86 83 88 89
76 224 285 114 109 162 245 162 220 249 228 248 340 140 112 106 88 83 96 96 67 62 44 61 62 61 62 74 77 78 77 82 86 84 84 88 90 99 95 82 85 94 117 127
57 271 272 290 338 5 256 238 170 242 260 335 56 74 137 117 119 110 111 107 97 104 103 81 82 69 70 90 92 91 90 89 84 89 88 83 80 73 71 70 72 73 65 75
215 266 274 273 297 295 265 259 254 235 239 249 329 357 22 127 136 138 140 139 124 99 105 106 103 95 85 80 84 89 91 89 92 90 86 81 74 70 65 60 65 65 64 65
183 273 293 283 258 241 270 254 228 238 244 252 273 276 114 110 111 141 155 141 136 130 119 115 116 108 103 96 93 93 93 96 96 90 77 71 69 67 77 82 73 73 73 68
160 215 344 279 139 241 249 218 218 204 221 212 234 126 121 139 156 163 149 154 146 144 140 134 125 126 131 125 123 110 103 99 95 95 99 95 90 95 96 83 75 68 67 67
175 194 247 273 306 229 145 95 3 216 205 199 143 153 163 166 169 155 151 157 152 149 152 144 131 124 126 124 117 117 115 113 105 97 93 94 91 85 76 78 75 75 75 75
261 188 212 219 294 299 153 183 168 172 250 209 199 158 165 133 128 169 159 164 157 157 156 146 132 132 123 129 129 119 115 115 109 107 106 103 95 87 80 75 70 49 56 57
249 269 210 187 243 241 127 135 122 84 271 193 169 159 154 128 168 227 173 165 151 155 153 145 144 144 140 143 136 127 130 121 111 105 99 85 89 94 90 91 86 64 77 71
165 192 205 217 259 280 151 140 138 157 215 147 191 152 149 171 202 248 148 157 151 154 153 143 144 155 154 151 143 142 142 123 117 111 107 102 94 93 104 104 86 70 66 38
166 162 182 199 195 255 139 106 183 178 129 160 171 149 157 158 145 145 153 159 152 151 148 149 153 156 153 157 150 152 133 127 118 120 118 112 100 97 105 102 78 86 69 44
195 180 175 180 208 159 174 157 190 160 161 180 167 157 162 159 163 171 162 163 160 157 155 158 163 154 155 163 163 146 146 129 131 129 126 121 122 109 86 91 90 76 69 63
225 170 190 102 210 184 199 206 164 177 166 170 175 170 174 181 164 171 177 169 165 165 165 165 168 161 164 165 169 139 142 137 143 143 141 137 131 125 114 104 80 67 73 56
179 150 182 238 264 123 206 209 194 191 199 207 183 181 179 187 194 172 178 184 179 170 170 171 176 170 170 162 149 144 142 144 152 141 143 146 129 155 128 93 95 84 77 107
164 170 171 210 175 173 190 207 181 182 194 209 202 209 209 198 208 194 186 183 176 180 169 177 172 163 165 158 140 143 142 150 150 141 143 149 140 141 122 134 111 112 131 137